Content
SEND FEEDBACK

Daily
Averages
Monthly
Summary
United States of America

LONG'S PEAK, COLORADO


Home > North America > United States > Colorado
Elevation: 8612 feet     Latitude: 40 15N     Longitude: 105 51W

WEATHER
 
SELECT A DAY
Number of Records: 267,902;   Date Range: 8/13/03 - 10/27/14
 
SHARE

PRINT THIS DATA

[ ← Previous Day ]
WEATHER ALMANAC - JULY 12, 2014
[ Next Day → ]
[ °C ]   °F
Weather ElementAverageHighLow
Temperature64.1 °F77 °F (12:37 pm)53.6 °F (12:17 am)
Dewpoint51.7 °F55.4 °F (6:57 pm)50 °F (10:17 pm)
Humidity66.7 %88 % (11:17 pm)39 % (8:37 pm)
Barometer30.40 in30.46 in (2:16 am)30.36 in (4:17 am)
Wind Speed3.3 mph12.7 mph (2:37 pm)
Wind Gust17.3 mph (3:56 pm)
Weather ElementAverage
Visibility10 mi
Wind DirectionESE (101.1 °)

Weather ElementTotal
Precipitation0.16 in
Cooling Degree Days0.3 (Base 65)
Growing Degree Days15.3 (Base 50)
Averaged from 70 records on July 12, 2014
WEATHER CONDITIONS BREAKOUT
WIND DIRECTION BREAKOUT
WEATHER BY HOUR - JULY 12, 2014
[ °C ]   °F
Local TimeTemperatureDewpointHumidityBarometerVisibilityWind DirectionWind SpeedGust SpeedPrecipitationEventsConditions
12:17 AM55.4 °F51.8 °F88 %30.39 in10.0 miNorth (350°)4.6 mphScattered Clouds
12:36 AM55.4 °F51.8 °F88 %30.41 in10.0 miNNW (330°)6.9 mphMostly Cloudy
12:57 AM57.2 °F51.8 °F82 %30.41 in10.0 miNorth (360°)4.6 mphRainRain
1:17 AM55.4 °F51.8 °F88 %30.42 in10.0 miCalm0.02 inRainLight Rain
1:56 AM55.4 °F51.8 °F88 %30.41 in10.0 miCalm0.04 inRainLight Rain
2:17 AM55.4 °F51.8 °F88 %30.41 in10.0 miCalmDrizzle
2:37 AM55.4 °F51.8 °F88 %30.40 in10.0 miWNW (290°)4.6 mphLight Drizzle
2:56 AM55.4 °F51.8 °F88 %30.40 in10.0 miCalmClear
3:17 AM55.4 °F51.8 °F88 %30.39 in10.0 miCalmClear
3:37 AM55.4 °F51.8 °F88 %30.39 in10.0 miCalmClear
3:57 AM55.4 °F51.8 °F88 %30.39 in10.0 miCalmClear
4:17 AM55.4 °F51.8 °F88 %30.39 in10.0 miCalmClear
4:37 AM53.6 °F50.0 °F88 %30.39 in10.0 miWest (260°)4.6 mphClear
4:57 AM53.6 °F50.0 °F88 %30.40 in10.0 miCalmClear
5:17 AM53.6 °F50.0 °F88 %30.41 in10.0 miNW (320°)5.8 mphClear
5:37 AM53.6 °F50.0 °F88 %30.41 in10.0 miCalmClear
5:57 AM53.6 °F50.0 °F88 %30.41 in10.0 miSSW (210°)4.6 mphClear
6:17 AM53.6 °F50.0 °F88 %30.41 in10.0 miESE (110°)6.9 mphClear
6:37 AM53.6 °F50.0 °F88 %30.41 in10.0 miCalmScattered Clouds
6:57 AM53.6 °F50.0 °F88 %30.41 in10.0 miCalmScattered Clouds
7:17 AM55.4 °F51.8 °F88 %30.42 in10.0 miCalmClear
7:56 AM55.4 °F50.0 °F82 %30.42 in10.0 miCalmMostly Cloudy
8:17 AM57.2 °F51.8 °F82 %30.43 in10.0 miCalmMostly Cloudy
8:37 AM59.0 °F51.8 °F77 %30.43 in10.0 miCalmScattered Clouds
8:57 AM60.8 °F51.8 °F72 %30.43 in10.0 miCalmScattered Clouds
9:17 AM62.6 °F51.8 °F68 %30.43 in10.0 miCalmScattered Clouds
9:37 AM62.6 °F51.8 °F68 %30.42 in10.0 miCalmClear
9:57 AM62.6 °F51.8 °F68 %30.42 in10.0 miCalmClear
10:17 AM69.8 °F53.6 °F56 %30.42 in10.0 miCalmClear
10:37 AM69.8 °F53.6 °F56 %30.42 in10.0 miWest (280°)3.5 mphClear
10:56 AM69.8 °F51.8 °F53 %30.42 in10.0 miNorth (360°)5.8 mphClear
11:17 AM69.8 °F53.6 °F56 %30.41 in10.0 miCalmScattered Clouds
11:37 AM71.6 °F51.8 °F50 %30.41 in10.0 miNE (40°)3.5 mphScattered Clouds
11:57 AM73.4 °F53.6 °F50 %30.41 in10.0 miCalmScattered Clouds
12:17 PM73.4 °F51.8 °F47 %30.40 in10.0 miNNW (340°)4.6 mphScattered Clouds
12:36 PM73.4 °F53.6 °F50 %30.39 in10.0 miCalmThunderstormMostly Cloudy
12:57 PM69.8 °F53.6 °F56 %30.40 in10.0 miWest (270°)11.5 mph17.3 mph0.01 inRain-ThunderstormLight Thunderstorms and Rain
1:17 PM62.6 °F51.8 °F68 %30.41 in10.0 miWest (260°)12.7 mph0.02 inRainRain
1:37 PM62.6 °F51.8 °F68 %30.42 in10.0 miWNW (290°)9.2 mph0.02 inThunderstormThunderstorm
1:57 PM66.2 °F53.6 °F64 %30.41 in10.0 miCalm0.02 inRainLight Rain
2:17 PM66.2 °F53.6 °F64 %30.40 in10.0 miWSW (240°)6.9 mphMostly Cloudy
2:37 PM69.8 °F55.4 °F60 %30.40 in10.0 miSSW (200°)10.4 mphLight Drizzle
2:57 PM71.6 °F51.8 °F50 %30.39 in10.0 miSouth (180°)11.5 mphThunderstormOvercast
3:17 PM73.4 °F51.8 °F47 %30.39 in10.0 miSW (230°)8.1 mph16.1 mphScattered Clouds
3:36 PM77.0 °F50.0 °F39 %30.38 in10.0 miSW (220°)9.2 mphMostly Cloudy
3:57 PM77.0 °F50.0 °F39 %30.37 in10.0 miWSW (250°)9.2 mphThunderstormScattered Clouds
4:17 PM73.4 °F50.0 °F44 %30.37 in10.0 miSW (230°)4.6 mphMostly Cloudy
4:37 PM73.4 °F50.0 °F44 %30.37 in10.0 miWest (280°)4.6 mphRainLight Rain
4:57 PM73.4 °F53.6 °F50 %30.36 in10.0 miCalmRain-ThunderstormLight Thunderstorms and Rain
5:17 PM73.4 °F51.8 °F47 %30.36 in7.0 miCalm0.01 inRainRain
5:37 PM73.4 °F51.8 °F47 %30.36 in10.0 miCalm0.01 inMostly Cloudy
5:57 PM73.4 °F50.0 °F44 %30.37 in10.0 miCalm0.01 inClear
6:17 PM73.4 °F51.8 °F47 %30.37 in10.0 miEast (100°)5.8 mphScattered Clouds
6:37 PM71.6 °F51.8 °F50 %30.37 in10.0 miEast (90°)6.9 mphRainLight Rain
6:57 PM71.6 °F51.8 °F50 %30.37 in10.0 miEast (100°)9.2 mphRainLight Rain
7:17 PM73.4 °F50.0 °F44 %30.37 in10.0 miESE (110°)8.1 mphMostly Cloudy
7:37 PM71.6 °F51.8 °F50 %30.37 in10.0 miENE (60°)4.6 mphScattered Clouds
7:57 PM69.8 °F51.8 °F53 %30.39 in10.0 miEast (100°)6.9 mphClear
8:17 PM69.8 °F53.6 °F56 %30.39 in10.0 miENE (70°)4.6 mphMostly Cloudy
8:37 PM69.8 °F51.8 °F53 %30.40 in10.0 miEast (90°)5.8 mphMostly Cloudy
8:57 PM66.2 °F51.8 °F60 %30.40 in10.0 miCalmScattered Clouds
9:17 PM64.4 °F51.8 °F64 %30.41 in10.0 miCalmMostly Cloudy
9:37 PM66.2 °F50.0 °F56 %30.42 in10.0 miCalmOvercast
9:57 PM64.4 °F51.8 °F64 %30.42 in10.0 miCalmOvercast
10:17 PM64.4 °F51.8 °F64 %30.43 in10.0 miESE (120°)4.6 mphOvercast
10:37 PM66.2 °F53.6 °F64 %30.44 in10.0 miESE (110°)4.6 mphOvercast
10:57 PM64.4 °F51.8 °F64 %30.45 in10.0 miESE (110°)9.2 mphDrizzle
11:17 PM60.8 °F53.6 °F77 %30.45 in10.0 miESE (120°)5.8 mphOvercast
11:37 PM60.8 °F51.8 °F72 %30.46 in10.0 miCalmMostly Cloudy
11:57 PM60.8 °F51.8 °F72 %30.46 in10.0 miCalmScattered Clouds
Hourly data recorded from K20V, located miles away from Long's Peak, Colorado







STORIES FROM OUR PARTNERS